TimeEDT,TemperatureF,Dew PointF,Humidity,Sea Level PressureIn,VisibilityMPH,Wind Direction,Wind SpeedMPH,Gust SpeedMPH,PrecipitationIn,Events,Conditions,WindDirDegrees,DateUTC
12:18 AM,37.0,30.9,79,29.90,8.0,North,32.2,44.9,0.00,,Overcast,10,2014-04-01 04:18:00
12:56 AM,37.0,30.9,79,29.92,9.0,North,24.2,36.8,0.00,,Overcast,10,2014-04-01 04:56:00
1:03 AM,35.1,30.0,82,29.91,4.0,NNE,21.9,36.8,0.00,Snow,Light Snow,20,2014-04-01 05:03:00
1:56 AM,36.0,32.0,86,29.92,10.0,North,20.7,32.2,0.00,Rain,Light Rain,10,2014-04-01 05:56:00
2:16 AM,35.1,30.9,85,29.92,2.5,North,20.7,34.5,0.00,Snow,Light Snow,360,2014-04-01 06:16:00
2:23 AM,35.1,30.9,85,29.92,3.0,North,20.7,32.2,0.00,Snow,Light Snow,10,2014-04-01 06:23:00
2:32 AM,36.0,32.0,86,29.91,9.0,North,21.9,31.1,0.00,,Overcast,10,2014-04-01 06:32:00
2:40 AM,36.0,30.9,82,29.92,10.0,North,24.2,38.0,0.00,,Overcast,10,2014-04-01 06:40:00
2:52 AM,33.8,30.2,87,29.92,2.0,North,18.4,34.5,0.00,Snow,Light Snow,10,2014-04-01 06:52:00
2:56 AM,34.0,30.0,85,29.93,4.0,North,17.3,33.4,0.00,Snow,Light Snow,10,2014-04-01 06:56:00
3:11 AM,35.1,30.9,85,29.92,10.0,NNE,19.6,29.9,0.00,,Overcast,20,2014-04-01 07:11:00
3:19 AM,34.0,30.0,85,29.92,3.0,North,19.6,39.1,0.00,Snow,Light Snow,10,2014-04-01 07:19:00
3:49 AM,36.0,32.0,86,29.93,10.0,North,18.4,24.2,0.00,,Overcast,350,2014-04-01 07:49:00
3:56 AM,36.0,32.0,86,29.93,10.0,North,18.4,27.6,0.00,,Overcast,360,2014-04-01 07:56:00
4:56 AM,37.0,30.0,76,29.93,10.0,North,20.7,29.9,0.00,,Overcast,10,2014-04-01 08:56:00
5:56 AM,37.0,28.9,73,29.94,10.0,North,18.4,33.4,N/A,,Overcast,10,2014-04-01 09:56:00
6:56 AM,37.0,28.9,73,29.96,10.0,North,15.0,29.9,N/A,,Overcast,10,2014-04-01 10:56:00
7:56 AM,36.0,30.0,79,29.97,10.0,North,18.4,29.9,0.00,,Overcast,10,2014-04-01 11:56:00
8:56 AM,37.0,30.0,76,29.99,10.0,North,18.4,28.8,N/A,,Overcast,10,2014-04-01 12:56:00
9:56 AM,37.9,30.0,73,30.00,10.0,North,13.8,24.2,N/A,,Overcast,10,2014-04-01 13:56:00
10:56 AM,37.9,30.0,73,30.01,10.0,North,16.1,25.3,N/A,,Overcast,10,2014-04-01 14:56:00
11:56 AM,39.9,30.0,68,30.00,10.0,North,17.3,28.8,N/A,,Overcast,360,2014-04-01 15:56:00
12:56 PM,39.9,28.9,65,30.02,10.0,North,20.7,28.8,N/A,,Overcast,360,2014-04-01 16:56:00
1:56 PM,43.0,28.9,58,30.01,10.0,North,18.4,28.8,N/A,,Mostly Cloudy,360,2014-04-01 17:56:00
2:56 PM,44.1,30.0,58,30.01,10.0,North,15.0,24.2,N/A,,Partly Cloudy,10,2014-04-01 18:56:00
3:56 PM,43.0,28.9,58,30.01,10.0,North,13.8,21.9,N/A,,Clear,360,2014-04-01 19:56:00
4:56 PM,43.0,28.9,58,30.03,10.0,North,11.5,-,N/A,,Clear,360,2014-04-01 20:56:00
5:56 PM,43.0,28.9,58,30.04,10.0,North,8.1,-,N/A,,Clear,360,2014-04-01 21:56:00
6:56 PM,39.9,28.0,63,30.04,10.0,NNE,6.9,-,N/A,,Clear,30,2014-04-01 22:56:00
7:56 PM,36.0,28.0,73,30.04,10.0,North,3.5,-,N/A,,Clear,10,2014-04-01 23:56:00
8:56 PM,37.9,28.9,70,30.05,10.0,NNW,3.5,-,N/A,,Clear,330,2014-04-02 00:56:00
9:56 PM,37.9,30.0,73,30.07,10.0,WNW,6.9,-,N/A,,Clear,300,2014-04-02 01:56:00
10:56 PM,35.1,28.9,78,30.06,10.0,North,4.6,-,N/A,,Clear,10,2014-04-02 02:56:00
11:56 PM,37.0,30.0,76,30.09,10.0,NNW,4.6,-,N/A,,Clear,330,2014-04-02 03:56:00